Flag for U.S.A. Weather past 2 weeks in Kilgore, Texas, U.S.A.

Now
42 °F

Clear.


Feels Like: 39 °F
Forecast: 39 / 67 °F
Wind: 5 mph from South

Location: Gregg County Airport

Current Time: Mar 27, 2015 at 4:01:51 AM

Latest Report: Mar 27, 2015 at 2:53 AM


Visibility: 10 mi

Pressure: 30.08 "Hg

Humidity: 76%

Dew point: 35 °F

Location of KilgoreLocation

Historic Weather in Kilgore — Graph

°F

Kilgore temperature yesterday

Maximum temperature yesterday: 66 °F (at 12:53 AM)
Minimum temperature yesterday: 52 °F (at 11:53 PM)
Average temperature yesterday: 60 °F

Past Weeks' High & Low Weather Summary

 TemperatureHumidityPressure
High83 °F (Mar 17, 2:53 PM)97% (Mar 13, 9:53 AM)30.28 "Hg (Mar 13, 9:53 AM)
Low42 °F (Mar 27, 2:53 AM)38% (Mar 26, 6:53 PM)29.81 "Hg (Mar 26, 1:53 AM)
Average61 °F82%30.04 "Hg
* Reported Mar 12 2:53 AM — Mar 27 2:53 AM, Kilgore, Weather by CustomWeather, © 2015

Note: Actual official high and low records may vary slightly from our data, if they occured in-between our weather recording intervals... More about our weather records

Advertising

Kilgore weather history for previous 24 hours

 ConditionsComfort  
Time TempWeatherWind HumidityBarometerVisibility
2:53 AM
Fri, Mar 27
42 °FClear.5 mph76%30.08 "Hg10 mi
1:53 AM46 °FClear.No wind63%30.11 "Hg10 mi
12:53 AM49 °FClear.6 mph57%30.12 "Hg10 mi
11:53 PM
Thu, Mar 26
52 °FClear.8 mph50%30.12 "Hg10 mi
10:53 PM53 °FClear.8 mph55%30.11 "Hg10 mi
9:53 PM53 °FClear.8 mph56%30.10 "Hg10 mi
8:53 PM55 °FClear.8 mph57%30.07 "Hg10 mi
7:53 PM59 °FSunny.7 mph44%30.04 "Hg10 mi
6:53 PM64 °FPassing clouds.13 mph38%30.01 "Hg10 mi
5:53 PM65 °FBroken clouds.6 mph51%29.99 "Hg10 mi
4:53 PM62 °FOvercast.12 mph56%30.00 "Hg10 mi
3:53 PM64 °FCloudy.14 mph50%29.99 "Hg10 mi
2:53 PM63 °FPartly sunny.20 mph54%29.98 "Hg10 mi
1:53 PM58 °FOvercast.18 mph67%30.01 "Hg10 mi
12:53 PM55 °FOvercast.16 mph77%30.02 "Hg10 mi
11:53 AM53 °FFog.17 mph86%30.02 "Hg5 mi
10:53 AM53 °FOvercast.18 mph83%30.00 "Hg9 mi
9:53 AM54 °FLight rain. Fog.21 mph86%29.97 "Hg1 mi
8:53 AM57 °FOvercast.14 mph83%29.94 "Hg10 mi
7:53 AM60 °FFog.16 mph86%29.90 "Hg6 mi
6:53 AM65 °FOvercast.6 mph85%29.85 "Hg10 mi
5:53 AM63 °FPartly cloudy.6 mph87%29.83 "Hg10 mi
4:53 AM64 °FPassing clouds.5 mph84%29.84 "Hg10 mi
Weather by CustomWeather, © 2015

See weather overviewHow to use our weather pages